{"data":{"norad_id":68494,"intl_designator":"2026-067CG","name":"ICEYE-X71","alt_names":[],"object_type":"PAYLOAD","status":"ACTIVE","operator":null,"country":"FIN","launch_date":"2026-03-30","launch_site_code":"AFWTR","launch_vehicle":null,"mission":null,"orbit_class":"UNKNOWN","rcs_meters":null,"size_class":null,"mass_kg":null,"dimensions":null,"purposes":[],"wikipedia_slug":null,"has_3d_model":false,"image_url":null,"decayed_at":null,"tle_current":{"epoch":"2026-09-19T07:44:14.085600Z","epoch_age_seconds":170681,"freshness":"FRESH","line1":"1 68494U 26067CG  26262.32238525  .00006040  00000+0  49956-3 0  9995","line2":"2 68494  97.7738 219.4271 0003836  79.5826 280.5829 14.99281801 25786","mean_motion":14.99281801,"eccentricity":0.0003836,"inclination_deg":97.7738,"raan_deg":219.4271,"arg_perigee_deg":79.5826,"mean_anomaly_deg":280.5829,"bstar":0.00049956,"rev_number":2578,"period_min":96.045986754427,"perigee_km":566.4491165948,"apogee_km":571.77904762499,"semimajor_km":6947.2510821099,"source":"CELESTRAK","updated_at":"2026-09-20T09:00:24.256475Z"}}}